INTELSAT 11 (IS-11)

Last updated on Thu Oct 30 2025 00:02:47 GMT+0000 (Coordinated Universal Time)

1 32253U 07044B 25302.48303778 .00000098 00000+0 00000+0 0 9997 2 32253 2.9594 81.4893 0008829 141.8094 48.9918 0.99047704 66161
UTC large
Height (km)
Speed (km/s)
/
Latitude / Longitude
Inclination (degrees)
Orbital Period (minutes)
Azimuth
Elevation
Range (km)
Doppler Factor

Next 0 passes for location: London (51.5072 / 0.1276)

Sorry there are no passes over London.